DMSP 5D-2 F13 DEB, 40677

Orbit data source: Space-Track

DMSP 5D-2 F13 DEB, 40677 is space debris in SSO originally from a launch on Fri, 24 Mar 1995 UTC launched from the Air Force Western Test Range (AFWTR). Debris objects in space refer to the collection of defunct objects orbiting the Earth. Examples of debris include non-operational satellites, rocket bodies, and fragments generated from explosions, collisions, or faulty payload assembly.

Loading next visibility...
Identifier
40677, 1995-015FR
Orbit
SSO
Country
Flag of USUS
Related business
Manufacturer
Unknown
Mission
Spacecraft
Bus & Motor
Unknown
Mass
Unknown
Launch date (UTC)
1995-03-24 (31 years ago)
Launch vehicle
Unknown
Launch site
Air Force Western Test Range (AFWTR)
Object type
Payload
Rocket body
Debris
Shape & HBR
Unknown shape, 0.1 m
Radar Cross Section
Small (<0.1 m²)

Expand to show TLE details & history
Last TLE update: 4 days ago

TLE from 4 days ago
0 DMSP 5D-2 F13 DEB
1 40677U 95015FR  25307.32940459  .00000652  00000-0  27804-3 0  9994
2 40677  98.6021 322.7572 0047938 205.2278 154.6562 14.27821020548190
Epoch: 2025-11-03T07:54Z
TLE epoch observation values (Epoch: 2025-11-03T07:54:20.556Z)
Latitude
0.00003°
Longitude
161.33921°
Altitude
833.083 km
Speed
7.42 km/s
True Right ascension
21h 31m 01s
True Declination
0° 00' 00"
Sunlit
Object was in daylight at epoch
Visualization orbit readout
Latitude
Unknown
Longitude
Unknown
Altitude
Unknown
Speed
Unknown
Apparent Right ascension
Unknown
Apparent Declination
Unknown
Sunlit
N/A
Visualization observer readout
Local Sidereal Time
11:13:39
Azimuth
Unknown
Elevation
Unknown
Doppler factor
Unknown
Orbital elements
Apogee altitude
830.559 km
Perigee altitude
761.774 km
Semi-major axis
7,174.303 km
Eccentricity
0.00479
Inclination
98.6021°
RAAN
322.7572°
Arg. of periapsis
205.2278°
True anomaly
154.89007°
Mean anomaly
154.6562°
Eccentric anomaly
154.77326°
Mean motion
3.57169 °/min
Orbital period
100.79 mins
BSTAR
0.00027804

Documentation

Showing up to 5 results
|